N1OTX Weather Reports


Display with metric or nautical units.
time (UTC)temp
F
wind
direction
speed
MPH
gust
MPH
rain 1hr
in
rain 24hr
in
rain mn
in
humidity
%
barometer
mb
20260906172022 64 52 1.0 6.0 0.00 0.25 0.25 82 1015.2
20260906171522 65 339 2.0 7.0 0.00 0.25 0.25 77 1015.1
20260906171021 66 23 1.0 4.0 0.00 0.25 0.25 72 1015.0
20260906170523 66 7 1.0 4.0 0.00 0.25 0.25 74 1014.9
20260906170023 66 335 1.0 2.0 0.00 0.25 0.25 75 1014.9
20260906165523 66 61 1.0 2.0 0.00 0.25 0.25 75 1014.9
20260906165023 66 24 1.0 2.0 0.00 0.25 0.25 77 1015.0
20260906164602 65 357 0.0 2.0 0.00 0.25 0.25 83 1015.1
20260906164047 64 345 0.0 1.0 0.00 0.25 0.25 81 1015.1
20260906163522 64 12 0.0 1.0 0.00 0.25 0.25 78 1015.1
20260906163021 64 6 0.0 3.0 0.00 0.25 0.25 77 1015.0
20260906162521 64 332 0.0 2.0 0.00 0.25 0.25 77 1015.2
20260906162023 65 40 0.0 2.0 0.00 0.25 0.25 76 1015.2
20260906161601 64 29 0.0 2.0 0.00 0.25 0.25 76 1015.2
20260906161023 64 67 0.0 2.0 0.00 0.25 0.25 76 1015.2
20260906160522 65 357 0.0 2.0 0.00 0.25 0.25 76 1015.2
20260906160022 65 15 1.0 2.0 0.00 0.25 0.25 77 1015.2
20260906155522 65 67 0.0 1.0 0.00 0.25 0.25 79 1015.2
20260906155021 65 66 0.0 1.0 0.00 0.25 0.25 77 1015.2
20260906154521 66 49 0.0 2.0 0.00 0.25 0.25 76 1015.2
20260906154021 66 344 0.0 1.0 0.00 0.25 0.25 75 1015.3
20260906153523 67 45 1.0 2.0 0.00 0.25 0.25 73 1015.4
20260906152022 66 351 1.0 2.0 0.00 0.25 0.25 77 1015.3
20260906151522 65 356 0.0 3.0 0.00 0.25 0.25 78 1015.5
20260906151022 65 311 1.0 2.0 0.00 0.25 0.25 80 1015.4
20260906150542 65 336 1.0 3.0 0.00 0.25 0.25 80 1015.5
20260906150021 65 349 1.0 4.0 0.00 0.25 0.25 77 1015.6
20260906145521 64 345 1.0 4.0 0.00 0.25 0.25 82 1015.7
20260906145023 63 48 1.0 6.0 0.00 0.25 0.25 82 1015.7
20260906144523 63 49 0.0 1.0 0.00 0.25 0.25 83 1015.7
20260906144022 63 48 0.0 4.0 0.00 0.25 0.25 81 1015.6
20260906143522 63 25 1.0 4.0 0.00 0.25 0.25 82 1015.6
20260906143022 62 59 1.0 3.0 0.00 0.25 0.25 82 1015.6
20260906142542 62 338 1.0 3.0 0.00 0.25 0.25 81 1015.6
20260906142021 63 32 1.0 2.0 0.00 0.25 0.25 80 1015.5
20260906141521 64 358 1.0 3.0 0.00 0.25 0.25 80 1015.4
20260906141023 64 77 1.0 3.0 0.00 0.25 0.25 79 1015.4
20260906140523 64 88 1.0 6.0 0.00 0.25 0.25 82 1015.4
20260906140023 64 20 1.0 4.0 0.00 0.25 0.25 85 1015.5
20260906135522 63 64 1.0 3.0 0.00 0.25 0.25 85 1015.3
20260906135022 62 345 0.0 2.0 0.00 0.25 0.25 85 1015.3
20260906134542 62 76 1.0 4.0 0.00 0.25 0.25 88 1015.4
20260906134022 61 56 1.0 4.0 0.00 0.25 0.25 88 1015.5
20260906133521 61 311 1.0 3.0 0.00 0.25 0.25 88 1015.4
20260906133021 61 304 1.0 2.0 0.00 0.25 0.25 88 1015.3
20260906132523 61 317 1.0 4.0 0.00 0.25 0.25 90 1015.4
20260906132024 62 27 1.0 4.0 0.00 0.25 0.25 91 1015.5
20260906131522 61 48 0.0 2.0 0.00 0.25 0.25 90 1015.5
20260906131022 61 322 0.0 2.0 0.00 0.25 0.25 90 1015.4
20260906130522 61 347 0.0 2.0 0.00 0.25 0.25 91 1015.5
20260906130022 61 7 0.0 1.0 0.00 0.25 0.25 92 1015.5
20260906125521 61 12 0.0 1.0 0.00 0.25 0.25 93 1015.5
20260906125023 61 13 0.0 1.0 0.00 0.25 0.25 94 1015.4
20260906124523 61 17 0.0 1.0 0.00 0.25 0.25 95 1015.5
20260906124022 60 8 0.0 3.0 0.00 0.25 0.25 95 1015.5
20260906123522 60 301 0.0 1.0 0.00 0.25 0.25 96 1015.5
20260906123022 60 140 0.0 1.0 0.00 0.25 0.25 97 1015.4
20260906122522 60 140 0.0 1.0 0.00 0.25 0.25 97 1015.4
20260906122022 59 140 0.0 1.0 0.00 0.25 0.25 98 1015.3
20260906121521 59 140 0.0 1.0 0.00 0.25 0.25 99 1015.1
20260906121021 59 0.0 0.0 0.00 0.25 0.25 99 1015.2
20260906120523 59 0.0 0.0 0.00 0.25 0.25 99 1015.2
20260906120023 59 0.0 1.0 0.00 0.25 0.25 99 1015.1
20260906115522 59 0.0 1.0 0.00 0.25 0.25 99 1015.0
20260906115042 59 140 0.0 1.0 0.00 0.25 0.25 99 1014.9
20260906114522 59 0.0 0.0 0.00 0.25 0.25 99 1014.9
20260906114042 59 0.0 0.0 0.00 0.25 0.25 99 1014.9
20260906113521 59 0.0 0.0 0.00 0.25 0.25 99 1014.7
20260906113021 59 0.0 0.0 0.00 0.25 0.25 99 1014.6
20260906112521 58 0.0 0.0 0.00 0.25 0.25 99 1014.6
20260906112043 59 0.0 0.0 0.00 0.25 0.25 99 1014.6
20260906111520 58 0.0 0.0 0.01 0.25 0.25 99 1014.5
20260906111022 58 0.0 0.0 0.01 0.25 0.25 99 1014.6
20260906110522 58 0.0 0.0 0.01 0.25 0.25 99 1014.5
20260906110022 58 0.0 0.0 0.01 0.25 0.25 99 1014.2
20260906105522 58 0.0 0.0 0.02 0.25 0.25 99 1014.2
20260906105041 58 0.0 0.0 0.02 0.25 0.25 99 1014.3
20260906104521 58 0.0 0.0 0.02 0.25 0.25 99 1014.2
20260906104021 58 0.0 0.0 0.02 0.25 0.25 99 1014.2
20260906103523 58 0.0 0.0 0.03 0.25 0.25 99 1014.1
20260906103023 58 0.0 0.0 0.03 0.25 0.25 99 1014.2
20260906102643 58 0.0 0.0 0.04 0.25 0.25 99 1014.0
20260906102022 58 0.0 0.0 0.04 0.25 0.25 99 1014.0
20260906101522 58 0.0 0.0 0.04 0.24 0.24 99 1014.0
20260906101022 58 0.0 0.0 0.04 0.24 0.24 99 1014.0
20260906100541 58 0.0 0.0 0.05 0.24 0.24 99 1014.0
20260906100021 58 0.0 0.0 0.04 0.24 0.24 99 1013.9
20260906095523 58 0.0 0.0 0.03 0.23 0.23 99 1013.9
20260906095023 58 0.0 0.0 0.03 0.22 0.22 99 1013.8
20260906094547 58 0.0 0.0 0.04 0.22 0.22 99 1014.0
20260906094022 58 0.0 0.0 0.04 0.22 0.22 99 1013.9
20260906093522 58 140 0.0 1.0 0.06 0.22 0.22 99 1013.9
20260906093021 58 0.0 0.0 0.07 0.22 0.22 99 1013.8
20260906092522 59 140 0.0 1.0 0.06 0.21 0.21 99 1013.7
20260906092021 59 0.0 0.0 0.06 0.21 0.21 99 1013.6
20260906091521 59 0.0 0.0 0.06 0.21 0.21 99 1013.6
20260906091021 59 0.0 0.0 0.05 0.20 0.20 99 1013.5
20260906090521 59 142 0.0 1.0 0.06 0.20 0.20 99 1013.5
20260906090022 59 140 0.0 1.0 0.06 0.20 0.20 99 1013.4
20260906085522 59 0.0 0.0 0.08 0.20 0.20 99 1013.4
20260906085022 59 0.0 0.0 0.09 0.19 0.19 99 1013.5
20260906084522 59 0.0 0.0 0.10 0.19 0.19 99 1013.6
20260906084022 59 0.0 0.0 0.12 0.19 0.19 99 1013.7
20260906083521 59 0.0 0.0 0.10 0.16 0.16 99 1013.6
20260906083021 59 140 0.0 1.0 0.11 0.15 0.15 99 1013.5
20260906082521 59 0.0 0.0 0.12 0.15 0.15 99 1013.2
20260906082021 59 0.0 0.0 0.12 0.15 0.15 99 1013.2
20260906081522 59 0.0 0.0 0.13 0.15 0.15 98 1013.1
20260906081022 59 0.0 0.0 0.13 0.15 0.15 98 1013.1
20260906080522 58 0.0 0.0 0.13 0.14 0.14 97 1013.0
20260906080021 58 0.0 0.0 0.13 0.13 0.13 97 1013.0
20260906075521 59 0.0 0.0 0.11 0.12 0.12 97 1013.1
20260906075021 59 0.0 0.0 0.09 0.10 0.10 96 1013.0
20260906074523 59 0.0 0.0 0.08 0.09 0.09 95 1013.0
20260906074022 59 140 0.0 1.0 0.06 0.07 0.07 94 1013.1
20260906073523 60 139 0.0 3.0 0.05 0.06 0.06 92 1013.0
20260906073022 60 136 1.0 3.0 0.04 0.04 0.04 91 1013.1
20260906072522 61 101 2.0 6.0 0.03 0.04 0.04 94 1013.1
20260906072022 61 103 1.0 6.0 0.02 0.03 0.03 97 1013.0
20260906071522 61 0.0 1.0 0.02 0.02 0.02 97 1012.8
20260906071041 61 111 0.0 1.0 0.01 0.02 0.02 97 1012.9
20260906070521 61 111 0.0 1.0 0.01 0.01 0.01 97 1012.7
20260906070021 61 0.0 0.0 0.01 0.01 0.01 97 1012.8
20260906065521 61 0.0 0.0 0.01 0.01 0.01 97 1012.8
20260906065021 61 0.0 0.0 0.01 0.01 0.01 97 1012.7
20260906064522 61 0.0 0.0 0.00 0.00 0.00 97 1012.7
20260906064022 61 0.0 0.0 0.00 0.00 0.00 97 1012.9
20260906063522 61 0.0 0.0 0.00 0.00 0.00 97 1012.8
20260906063021 61 0.0 0.0 0.00 0.00 0.00 98 1012.9
20260906062522 61 0.0 0.0 0.00 0.00 0.00 98 1012.8
20260906062102 61 0.0 0.0 0.00 0.00 0.00 98 1012.8
20260906061542 61 0.0 0.0 0.00 0.00 0.00 98 1012.7
20260906061042 61 0.0 0.0 0.00 0.00 0.00 98 1012.7
20260906060521 61 0.0 0.0 0.00 0.00 0.00 97 1012.9
20260906060021 61 0.0 0.0 0.00 0.00 0.00 97 1012.8
20260906055521 61 0.0 0.0 0.00 0.00 0.00 97 1012.9
20260906055021 61 0.0 0.0 0.00 0.00 0.00 97 1012.9
20260906054520 62 0.0 0.0 0.00 0.00 0.00 97 1012.8
20260906054042 62 0.0 0.0 0.00 0.00 0.00 97 1012.8
20260906053521 62 0.0 0.0 0.00 0.00 0.00 97 1012.8
20260906053021 62 0.0 0.0 0.00 0.00 0.00 97 1012.7
20260906052601 62 0.0 0.0 0.00 0.00 0.00 97 1012.8
20260906052022 62 0.0 0.0 0.00 0.00 0.00 97 1012.9
20260906051522 62 0.0 0.0 0.00 0.00 0.00 97 1012.9
20260906051022 62 0.0 0.0 0.00 0.00 0.00 97 1013.0
20260906050522 62 0.0 0.0 0.00 0.00 0.00 96 1013.1
20260906050021 62 0.0 0.0 0.00 0.00 0.00 96 1013.1
20260906045526 61 0.0 0.0 0.00 0.00 0.00 96 1013.1
20260906045021 61 0.0 0.0 0.00 0.00 0.00 96 1013.1
20260906044520 61 0.0 0.0 0.00 0.00 0.00 96 1013.2
20260906044020 62 0.0 0.0 0.00 0.00 0.00 96 1013.1
20260906043524 62 0.0 0.0 0.00 0.00 0.00 95 1013.0
20260906043022 62 0.0 0.0 0.00 0.00 0.00 95 1013.0
20260906042522 62 0.0 0.0 0.00 0.00 0.00 95 1012.9
20260906042021 62 0.0 0.0 0.00 0.00 0.00 95 1012.9
20260906041521 62 0.0 0.0 0.00 0.00 0.00 95 1013.0
20260906041023 62 0.0 0.0 0.00 0.00 0.00 95 1012.9
20260906040543 62 0.0 0.0 0.00 0.00 0.00 95 1012.9
20260906040023 62 0.0 0.0 0.00 0.00 0.00 96 1012.9
20260906035522 62 0.0 0.0 0.00 0.00 0.00 96 1012.8
20260906035022 62 0.0 0.0 0.00 0.00 0.00 95 1012.9
20260906034522 62 0.0 0.0 0.00 0.00 0.00 95 1012.7
20260906034042 62 0.0 0.0 0.00 0.00 0.00 95 1012.9
20260906033521 62 0.0 0.0 0.00 0.00 0.00 95 1012.8
20260906033023 62 0.0 0.0 0.00 0.00 0.00 94 1012.6
20260906032523 62 0.0 0.0 0.00 0.00 0.00 94 1012.8
20260906032023 62 0.0 0.0 0.00 0.00 0.00 94 1012.7
20260906031543 62 0.0 0.0 0.00 0.00 0.00 93 1012.5
20260906031022 62 0.0 0.0 0.00 0.00 0.00 93 1012.6
20260906030522 62 0.0 0.0 0.00 0.00 0.00 93 1012.7
20260906030024 62 0.0 0.0 0.00 0.00 0.00 92 1012.5
20260906025521 62 111 0.0 1.0 0.00 0.00 0.00 91 1012.6
20260906025021 62 0.0 1.0 0.00 0.00 0.00 91 1012.6
20260906024523 63 111 0.0 1.0 0.00 0.00 0.00 90 1012.5
20260906024023 63 111 0.0 1.0 0.00 0.00 0.00 90 1012.6
20260906023543 63 111 0.0 1.0 0.00 0.00 0.00 90 1012.6
20260906023042 63 111 0.0 1.0 0.00 0.00 0.00 89 1012.6
20260906022522 63 111 0.0 1.0 0.00 0.00 0.00 88 1012.5
20260906022022 63 111 0.0 1.0 0.00 0.00 0.00 87 1012.5
20260906021541 63 0.0 0.0 0.00 0.00 0.00 86 1012.6
20260906021021 63 0.0 0.0 0.00 0.00 0.00 86 1012.8
20260906020543 63 0.0 0.0 0.00 0.00 0.00 86 1012.8
20260906020023 63 0.0 0.0 0.00 0.00 0.00 86 1012.8
20260906015522 63 0.0 0.0 0.00 0.00 0.00 86 1012.8
20260906015023 63 0.0 0.0 0.00 0.00 0.00 86 1012.6
20260906014547 63 0.0 0.0 0.00 0.00 0.00 86 1012.7
20260906014022 63 0.0 0.0 0.00 0.00 0.00 87 1012.8
20260906013542 63 110 0.0 1.0 0.00 0.00 0.00 86 1012.8
20260906013022 63 0.0 0.0 0.00 0.00 0.00 85 1012.7
20260906012521 63 0.0 0.0 0.00 0.00 0.00 85 1012.8
20260906012023 63 0.0 0.0 0.00 0.00 0.00 84 1012.7
20260906011521 63 0.0 0.0 0.00 0.00 0.00 83 1012.6
20260906011023 63 0.0 0.0 0.00 0.00 0.00 84 1012.7
20260906010522 63 0.0 0.0 0.00 0.00 0.00 83 1012.6
20260906010022 63 0.0 0.0 0.00 0.00 0.00 83 1012.6
20260906005522 64 0.0 0.0 0.00 0.00 0.00 83 1012.6
20260906005042 64 0.0 0.0 0.00 0.00 0.00 83 1012.6
20260906004522 64 0.0 0.0 0.00 0.00 0.00 83 1012.6
20260906004021 64 0.0 0.0 0.00 0.00 0.00 82 1012.4
20260906003521 64 0.0 0.0 0.00 0.00 0.00 82 1012.3
20260906003023 64 0.0 0.0 0.00 0.00 0.00 82 1012.3
20260906002523 64 0.0 0.0 0.00 0.00 0.00 82 1012.4
20260906002023 64 0.0 0.0 0.00 0.00 0.00 82 1012.3
20260906001522 64 0.0 0.0 0.00 0.00 0.00 82 1012.2
20260906001022 64 0.0 0.0 0.00 0.00 0.00 82 1012.2
20260906000521 64 0.0 0.0 0.00 0.00 0.00 81 1012.2
20260906000021 64 0.0 0.0 0.00 0.00 0.00 81 1012.1
20260905235521 64 0.0 0.0 0.00 0.00 0.00 80 1012.2
20260905235021 64 0.0 0.0 0.00 0.00 0.00 80 1012.2
20260905234523 64 0.0 0.0 0.00 0.00 0.00 80 1012.2
20260905234022 64 111 0.0 2.0 0.00 0.00 0.00 79 1012.2
20260905233523 64 110 0.0 2.0 0.00 0.00 0.00 79 1012.0
20260905233022 64 111 1.0 2.0 0.00 0.00 0.00 79 1012.0
20260905232522 64 111 1.0 2.0 0.00 0.00 0.00 79 1011.9
20260905232022 64 111 0.0 1.0 0.00 0.00 0.00 79 1011.9
20260905231521 65 118 1.0 3.0 0.00 0.00 0.00 79 1011.8
20260905231021 65 124 1.0 3.0 0.00 0.00 0.00 79 1011.8
20260905230521 65 120 1.0 3.0 0.00 0.00 0.00 79 1011.6
20260905230021 65 98 1.0 4.0 0.00 0.00 0.00 79 1011.6
20260905225523 65 133 2.0 4.0 0.00 0.00 0.00 79 1011.7
20260905225022 65 128 3.0 7.0 0.00 0.00 0.00 78 1011.6
20260905224522 65 136 3.0 8.0 0.00 0.00 0.00 78 1011.6
20260905224042 66 141 3.0 7.0 0.00 0.00 0.00 78 1011.6
20260905223521 66 125 3.0 6.0 0.00 0.00 0.00 77 1011.6
20260905223021 66 91 2.0 3.0 0.00 0.00 0.00 77 1011.6
20260905222521 66 61 0.0 1.0 0.00 0.00 0.00 76 1011.5
20260905222021 66 63 1.0 3.0 0.00 0.00 0.00 75 1011.5
20260905221522 66 74 1.0 3.0 0.00 0.00 0.00 76 1011.5
20260905221022 66 98 1.0 3.0 0.00 0.00 0.00 75 1011.5
20260905220522 66 87 1.0 3.0 0.00 0.00 0.00 75 1011.4
20260905220022 66 62 1.0 4.0 0.00 0.00 0.00 74 1011.3
20260905215522 67 98 2.0 4.0 0.00 0.00 0.00 74 1011.3
20260905215042 67 106 1.0 3.0 0.00 0.00 0.00 76 1011.3
20260905214521 67 67 1.0 6.0 0.00 0.00 0.00 77 1011.3
20260905214021 67 44 0.0 3.0 0.00 0.00 0.00 78 1011.2
20260905213523 67 61 1.0 4.0 0.00 0.00 0.00 77 1011.2
20260905213023 67 86 2.0 8.0 0.00 0.00 0.00 77 1011.1
20260905212522 67 86 1.0 3.0 0.00 0.00 0.00 77 1011.0
20260905212022 67 77 2.0 7.0 0.00 0.00 0.00 78 1011.0
20260905211522 67 105 3.0 7.0 0.00 0.00 0.00 79 1011.0
20260905211022 67 100 3.0 7.0 0.00 0.00 0.00 79 1011.0
20260905210521 67 93 4.0 8.0 0.00 0.00 0.00 78 1011.0
20260905210021 68 99 5.0 11.0 0.00 0.00 0.00 76 1011.0
20260905205523 68 102 3.0 8.0 0.00 0.00 0.00 75 1010.8
20260905205023 68 92 4.0 9.0 0.00 0.00 0.00 75 1010.9
20260905204523 69 90 3.0 10.0 0.00 0.00 0.00 75 1010.9
20260905204027 69 81 2.0 7.0 0.00 0.00 0.00 77 1010.7
20260905203522 69 101 4.0 8.0 0.00 0.00 0.00 76 1010.7
20260905203022 69 117 4.0 10.0 0.00 0.00 0.00 75 1010.6
20260905202521 69 112 3.0 9.0 0.00 0.00 0.00 75 1010.7
20260905202041 70 126 5.0 9.0 0.00 0.00 0.00 74 1010.7
20260905201521 70 84 5.0 10.0 0.00 0.00 0.00 72 1010.5
20260905201021 70 73 2.0 8.0 0.00 0.00 0.00 72 1010.5
20260905200523 70 73 3.0 8.0 0.00 0.00 0.00 70 1010.3
20260905200022 71 79 2.0 10.0 0.00 0.00 0.00 69 1010.1
20260905195543 71 85 5.0 11.0 0.00 0.00 0.00 68 1010.2
20260905195042 71 73 3.0 11.0 0.00 0.00 0.00 68 1010.1
20260905194522 72 97 3.0 6.0 0.00 0.00 0.00 70 1010.0
20260905194021 71 109 3.0 9.0 0.00 0.00 0.00 69 1010.2
20260905193541 71 104 2.0 13.0 0.00 0.00 0.00 70 1010.2
20260905193021 72 71 4.0 13.0 0.00 0.00 0.00 69 1010.3
20260905192523 72 107 4.0 9.0 0.00 0.00 0.00 69 1010.3
20260905192023 72 106 5.0 9.0 0.00 0.00 0.00 70 1010.3
20260905191520 72 106 4.0 10.0 0.00 0.00 0.00 70 1010.3
20260905191043 72 116 5.0 10.0 0.00 0.00 0.00 70 1010.2
20260905190522 71 86 4.0 8.0 0.00 0.00 0.00 72 1010.2
20260905190022 71 118 4.0 9.0 0.00 0.00 0.00 72 1010.3
20260905185541 71 103 4.0 9.0 0.00 0.00 0.00 71 1010.4
20260905185021 71 81 4.0 9.0 0.00 0.00 0.00 71 1010.3
20260905184521 71 104 5.0 10.0 0.00 0.00 0.00 72 1010.4
20260905184022 71 107 4.0 8.0 0.00 0.00 0.00 72 1010.4
20260905183523 71 99 5.0 10.0 0.00 0.00 0.00 72 1010.4
20260905183022 71 115 5.0 9.0 0.00 0.00 0.00 75 1010.4
20260905182042 69 78 1.0 3.0 0.00 0.00 0.00 77 1010.5
20260905181522 69 81 2.0 6.0 0.00 0.00 0.00 76 1010.5
20260905181021 69 91 3.0 10.0 0.00 0.00 0.00 77 1010.5
20260905180606 69 86 3.0 7.0 0.00 0.00 0.00 77 1010.5
20260905180023 69 93 4.0 11.0 0.00 0.00 0.00 77 1010.5
20260905175523 69 89 5.0 14.0 0.00 0.00 0.00 76 1010.4
20260905175022 69 93 3.0 7.0 0.00 0.00 0.00 76 1010.3
20260905174522 69 103 2.0 15.0 0.00 0.00 0.00 75 1010.3
20260905174022 70 46 1.0 3.0 0.00 0.00 0.00 74 1010.1
20260905173522 70 56 2.0 10.0 0.00 0.00 0.00 73 1010.1
20260905173021 71 95 3.0 7.0 0.00 0.00 0.00 72 1010.0
20260905172521 71 62 1.0 3.0 0.00 0.00 0.00 72 1010.0